Location: *
(51.9333°N, 8.8833°E)
Time: 00:37:52
(UTC+00:00)

Daily predictions for brighter satellites

Satellite Brightness Start Highest point End
(mag) Time Altitude Azimuth Time Altitude Azimuth Time Altitude Azimuth
CENTAUR R/B 4.3 02:29:13 32° NNE 02:29:13 32° NNE 02:34:50 10° ENE
Lacrosse 5 rocket 3.8 03:35:14 23° ENE 03:35:14 23° ENE 03:37:04 10° ENE
Cosmos 1943 Rocket 4.3 03:45:29 15° N 03:45:29 15° N 03:46:50 10° NNE
USA 229 DEB 4.1 03:43:52 53° N 03:43:52 53° N 03:49:30 10° NE
USA 229 4.1 03:43:58 53° N 03:43:58 53° N 03:49:36 10° NE
NOSS 3-1 (A) 3.8 03:49:58 57° NNE 03:49:58 57° NNE 03:55:29 10° NE
Cosmos 2369 Rocket 4.2 03:52:45 17° N 03:52:45 17° N 03:54:28 10° NNE
ATLAS 3B R/B 3.7 03:50:54 33° N 03:52:05 35° NNE 03:58:14 10° E
NOSS 3-2 (A) 4.3 03:55:56 47° NNW 03:57:54 61° NE 04:05:58 10° ESE
USA 215 3.4 03:58:15 10° SE 04:03:58 56° SSW 04:03:58 56° SSW
Cosmos 2074 Rocket 4.0 03:59:54 10° N 04:06:13 82° E 04:12:28 10° SSE
Cosmos 2082 3.7 04:07:05 76° ENE 04:07:05 76° ENE 04:12:40 10° SE
CZ-2C R/B 3.9 04:09:31 10° NNE 04:11:37 26° N 04:11:37 26° N
NOSS 2-3 (C) 4.5 04:20:06 49° N 04:20:06 49° N 04:24:41 10° NE
CENTAUR R/B 3.6 04:16:24 33° NNW 04:19:52 54° NNE 04:28:11 10° ESE
Meteor 2-15 4.3 04:19:45 69° SW 04:20:28 79° WNW 04:26:40 10° N
Cosmos 2297 Rocket 3.2 04:23:30 33° S 04:23:30 33° S 04:26:40 10° S
CZ-4B R/B 4.4 04:18:59 10° NNE 04:21:32 33° NNE 04:21:32 33° NNE
Cosmos 1470 4.0 04:20:24 10° SSE 04:24:08 41° E 04:27:55 10° NNE
APEX 4.4 04:27:03 39° NE 04:27:03 39° NE 04:30:00 10° NE
USA 238 DEB 3.8 04:29:54 41° NW 04:32:43 83° NE 04:40:08 10° SE
Cosmos 2227 Rocket 2.9 04:34:29 37° SSW 04:34:29 37° SSW 04:38:11 10° S
USA 238 3.8 04:30:01 41° NW 04:32:50 82° NE 04:40:14 10° SE
ALOS 3.0 04:28:57 10° NNE 04:33:32 51° E 04:38:05 10° S
ADEOS Rocket 3.9 04:32:48 10° SE 04:37:53 41° ENE 04:43:10 10° N
Cosmos 2263 Rocket 3.3 04:39:11 18° NNW 04:42:54 40° NE 04:48:12 10° ESE
COSMO-SKYMED 1 3.5 04:38:38 10° S 04:41:17 36° S 04:41:17 36° S
SL-4 R/B 2.2 04:51:23 53° SE 04:51:23 53° SE 04:54:14 10° ESE
STARLINK-43 4.0 04:54:31 47° S 04:54:52 48° SSE 04:58:28 10° ENE
Cosmos 2327 Rocket 4.4 04:49:16 10° NNW 04:55:33 65° W 05:01:41 10° S
Cosmos 1656 3.5 04:55:44 29° SW 04:58:37 78° WNW 05:04:08 10° NNE
Cosmos 2369 4.0 04:53:00 10° SSW 04:58:41 70° ESE 05:04:25 10° NE
Nadezhda 1 Rocket 3.8 04:57:33 10° SSW 05:03:39 79° W 05:09:45 10° N
NOSS 3-1 (C) 4.3 05:02:19 31° NW 05:04:02 36° NNW 05:10:35 10° NE
Abrixas rocket 3.0 05:05:22 40° SSE 05:05:22 40° SSE 05:07:55 10° ESE
CZ-3 R/B 4.4 04:56:44 10° WSW 05:07:25 18° SSW 05:12:50 10° SSE
MOS 1-B 4.3 05:01:47 10° NNE 05:07:38 89° ESE 05:13:26 10° SSW
Orbus 7S? 2.9 05:07:30 71° W 05:07:48 80° SSW 05:12:56 10° SE
METEOR-M 4.0 05:05:05 10° NNE 05:10:28 85° WNW 05:15:50 10° SSW
Meteor 1-21 Rocket 4.2 05:05:29 10° NNW 05:11:20 80° W 05:17:14 10° S
Lacrosse 5 rocket 1.7 05:10:54 46° WNW 05:11:53 58° NNW 05:16:21 10° ENE
CZ-4B R/B 3.7 05:06:29 10° NNE 05:12:05 64° ESE 05:17:32 10° S
Cosmos 1758 3.3 05:13:35 10° SSW 05:17:32 57° WNW 05:21:30 10° N
Cosmos 2218 Rocket 4.4 05:11:36 10° N 05:18:01 66° ENE 05:24:21 10° SSE
Cosmos 2184 Rocket 4.5 05:14:40 18° NNW 05:18:29 35° W 05:24:01 10° SSW
Cosmos 1602 Rocket 4.4 05:21:44 30° WSW 05:21:44 30° WSW 05:24:41 10° SSW
NOAA 6 4.1 05:18:08 10° NNE 05:23:21 82° ESE 05:28:34 10° SSW
Timation 1 Rocket 4.5 05:19:28 15° NNW 05:24:33 76° NE 05:30:34 10° SE
NOSS 3-2 (C) 4.0 05:19:37 21° NW 05:24:56 85° SW 05:33:15 10° SE
Cosmos 44 Rocket 3.7 05:24:26 34° W 05:25:34 40° WSW 05:30:00 10° S
Cosmos 1953 2.2 05:21:45 10° SSW 05:25:47 81° W 05:29:53 10° N
Lacrosse 4 Rocket 3.7 05:25:51 11° NNW 05:25:52 11° NNW 05:26:57 10° N
Cosmos 1703 3.7 05:22:13 10° N 05:26:12 62° ENE 05:30:06 10° SSE
Cosmos 2154 Rocket 4.2 05:20:20 10° NNW 05:26:13 46° W 05:32:03 10° SSW
Cosmos 1980 Rocket 2.7 05:21:19 10° SSW 05:26:56 64° ESE 05:32:34 10° NE
Cosmos 1943 Rocket 4.2 05:27:00 11° NNW 05:28:17 11° N 05:30:04 10° N
Meteor 2-17 Rocket 4.5 05:23:49 10° NNW 05:29:46 56° W 05:35:40 10° S
Okean O Rocket 1.6 05:25:37 10° NNE 05:30:07 87° WNW 05:34:35 10° SSW
FENGYUN 3A 3.6 05:24:48 10° N 05:30:08 62° WNW 05:35:28 10° SSW
SJ-12 4.2 05:26:31 10° N 05:30:24 43° WNW 05:34:15 10° SW
Cosmos 2228 3.4 05:26:31 10° S 05:30:52 67° E 05:35:16 10° NNE
Cosmos 1953 Rocket 3.5 05:27:15 10° N 05:31:46 90° SW 05:36:11 10° S
NOSS 2-2 (C) 3.8 05:28:25 10° SSW 05:32:00 59° SE 05:36:11 10° NE
SMAP 4.1 05:30:36 10° NNE 05:35:09 49° E 05:39:40 10° S
Cosmos 2369 Rocket 4.2 05:34:32 11° NNW 05:36:03 12° NNW 05:38:04 10° N
Cosmos 1697 Rocket 2.6 05:30:42 10° SW 05:36:18 71° WNW 05:41:56 10° NNE
Cosmos 1758 Rocket 3.7 05:33:36 13° NNW 05:37:16 50° W 05:41:30 10° S
Cosmos 2227 4.1 05:33:47 14° NNW 05:38:40 80° WSW 05:44:18 10° SSE
NOSS 3-1 (A) 4.4 05:37:25 22° WNW 05:40:39 35° NNW 05:47:11 10° NE
NOSS 2-2 (E) 3.3 05:39:36 10° SW 05:43:17 86° SE 05:47:44 10° NE
ATLAS 3B R/B 2.8 05:38:09 16° NW 05:43:42 78° NE 05:50:35 10° SE
CZ-2C R/B 4.4 05:43:04 10° ESE 05:47:33 29° ENE 05:52:08 10° N
NOSS 3-2 (A) 4.3 05:43:21 18° NW 05:48:57 52° WSW 05:56:57 10° SSE
Meteor 2-10 4.2 05:43:28 10° S 05:49:03 88° E 05:54:29 10° NNE
CZ-4B DEB 4.4 05:44:04 10° N 05:49:26 51° WNW 05:54:46 10° SW
SJ-7 4.3 05:45:24 10° N 05:49:29 66° WNW 05:53:35 10° SSW
Cosmos 1726 1.9 05:46:13 10° SSW 05:49:54 78° WNW 05:53:35 10° N
Cosmos 1959 Rocket 4.4 05:45:07 10° NNW 05:51:15 79° W 05:57:22 10° S
CZ-2C R/B 4.1 05:49:09 10° NNW 05:51:00 15° NW 05:51:00 15° NW
Genesis I 3.5 05:49:34 18° NW 05:52:24 64° NE 05:56:13 10° SE
NOSS 8 (H) 4.0 05:49:46 10° SW 05:52:47 84° NW 05:56:00 10° NE
NOSS 3 (A) 4.4 05:52:07 14° SW 05:54:24 79° NW 05:57:40 10° NE
STARLINK-60 3.0 05:54:11 25° WNW 05:56:02 80° N 05:59:25 10° E
FALCON 9 DEB 3.2 05:54:43 24° WNW 05:56:43 74° N 06:00:15 10° E
Helios 1A Rocket 2.9 05:53:01 10° N 05:57:05 59° WNW 06:01:08 10° SSW
Cosmos 2278 Rocket 4.3 05:53:57 10° NNW 05:57:39 17° NNE 06:01:19 10° ENE
Cosmos 2366 rocket 4.0 05:52:19 10° NNW 05:58:40 74° W 06:04:59 10° S
Cosmos 1470 3.9 05:57:14 10° WSW 06:00:23 22° WNW 06:03:34 10° NNW
Cosmos 2058 Rocket 3.2 05:56:23 10° S 06:00:47 79° E 06:05:11 10° NNE
Cosmos 1825 Rocket 4.3 06:00:24 10° NNW 06:04:13 31° W 06:08:03 10° SSW
CORIOLIS 4.5 06:00:46 10° NNE 06:06:08 71° ESE 06:11:28 10° S
STARLINK-29 3.2 06:03:50 19° WNW 06:06:14 74° N 06:09:46 10° E
STARLINK-52 3.2 06:03:58 19° W 06:06:21 73° N 06:09:53 10° E
Cosmos 2344 3.7 05:59:32 10° WSW 06:07:01 69° NW 06:15:48 10° NE
BREEZE M DEB (TANK) 4.3 06:05:13 10° SW 06:08:02 43° SSE 06:14:52 10° E
Cosmos 1328 4.1 06:04:32 10° NNW 06:08:24 46° W 06:12:12 10° SSW
Cosmos 1624 Rocket 4.1 06:03:45 10° NNW 06:09:02 84° ENE 06:14:15 10° SSE
ALOS 3.2 06:06:52 10° N 06:10:43 26° WNW 06:14:32 10° WSW
CENTAUR R/B 3.3 06:03:35 12° NW 06:11:03 67° SW 06:19:37 10° SSE
Cosmos 2322 Rocket 3.7 06:08:30 10° S 06:13:47 42° ESE 06:19:08 10° NE
Cosmos 2360 4.3 06:09:25 10° SW 06:15:03 57° NW 06:20:44 10° NNE
ATLAS 2AS CENTAUR R/B 3.5 06:09:31 10° SSW 06:17:26 70° SE 06:25:22 10° NE
NOAA 12 4.4 06:12:22 10° NNE 06:17:40 74° ESE 06:22:57 10° S
Elektron 3 4.5 06:15:36 10° SW 06:20:39 77° SE 06:23:41 10° NE
IRS-1C Rocket 4.1 06:16:28 10° NNE 06:21:46 82° WNW 06:27:02 10° SSW
COSMOS 2455 2.8 06:16:08 10° SW 06:22:10 80° NW 06:28:14 10° NE
Cosmos 2056 Rocket 3.6 06:17:36 10° NNW 06:23:03 80° WSW 06:28:29 10° SSE
AQUARIUS 4.1 06:18:37 10° N 06:23:06 68° WNW 06:27:33 10° SSW
ADEOS Rocket 3.3 06:18:31 10° SSW 06:23:34 37° W 06:28:46 10° NNW
Cosmos 2181 Rocket 4.2 06:20:47 10° SSW 06:26:48 51° WNW 06:32:57 10° N
Cosmos 1606 Rocket 4.2 06:22:45 10° SW 06:26:50 35° WNW 06:30:55 10° N
Cosmos 2263 Rocket 2.5 06:21:34 10° NW 06:26:58 47° WSW 06:32:20 10° S
SL-4 R/B 3.3 06:27:09 10° W 06:29:54 21° SW 06:32:34 10° SSE
Cosmos 1726 Rocket 4.0 06:25:57 10° SW 06:30:08 39° WNW 06:34:19 10° N
Cosmos 923 Rocket 4.0 06:25:04 10° SSW 06:30:19 70° WNW 06:35:39 10° NNE
STARLINK-43 3.3 06:29:03 10° W 06:32:46 77° N 06:36:30 10° E
Cosmos 2278 4.2 06:30:15 10° WSW 06:35:37 40° NW 06:41:01 10° NNE
STARLINK-48 3.6 06:32:40 10° WSW 06:36:34 79° SSE 06:40:28 10° ENE
Cosmos 1437 2.8 06:34:05 10° N 06:37:09 76° ENE 06:40:10 10° SSE
CZ-4 R/B 2.3 06:33:46 10° NNE 06:37:58 58° E 06:42:08 10° S
YAOGAN 1 3.9 06:33:53 10° NNE 06:38:04 45° E 06:42:12 10° S
Abrixas rocket 3.6 06:37:47 10° WSW 06:40:25 27° SSW 06:43:03 10° SE
STARLINK-80 3.4 06:37:40 10° WSW 06:41:30 87° NNW 06:45:19 10° ENE
CZ-2C R/B 4.1 06:37:19 10° S 06:41:44 43° W 06:46:06 10° NNW
Cosmos 1844 Rocket 3.1 06:36:40 10° NNW 06:42:17 65° NE 06:47:53 10° SE
Feng Yun 1-1 Rocket 4.4 06:37:27 10° NNE 06:43:20 65° WNW 06:49:10 10° SSW
NOSS 2-2 (D) 3.8 06:40:23 10° WSW 06:44:01 44° NNW 06:48:24 10° NE
